Location: Street
(51.1247°N, 2.7429°W)
Time: 08:44:02
(UTC+01:00)

X-37B - Pass Details

Date: 05 August 2021
Orbit: 381 x 393 km, 45.0° (Epoch: 29 August)

Event Time Altitude Azimuth Distance (km) Brightness Sun altitude
Exits shadow 03:52:46 15° 162° (SSE) 1,148 2.6 -13.9°
Maximum altitude 03:52:57 15° 158° (SSE) 1,146 2.7 -13.9°
Drops below altitude 10° 03:54:49 10° 121° (ESE) 1,397 3.5 -13.7°
Sets 03:57:30 0° 97° (E) 2,253 4.9 -13.4°
